{"data":{"norad_id":65533,"intl_designator":"2025-200P","name":"STARLINK-35172","alt_names":[],"object_type":"PAYLOAD","status":"ACTIVE","operator":null,"country":"US","launch_date":"2025-09-06","launch_site_code":"AFWTR","launch_vehicle":null,"mission":null,"orbit_class":"UNKNOWN","rcs_meters":null,"size_class":null,"mass_kg":null,"dimensions":null,"purposes":["comms"],"wikipedia_slug":null,"has_3d_model":false,"image_url":null,"decayed_at":null,"tle_current":{"epoch":"2026-05-25T03:45:37.708416Z","epoch_age_seconds":61592,"freshness":"FRESH","line1":"1 65533U 25200P   26145.15668644  .00007431  00000+0  51819-3 0  9990","line2":"2 65533  97.4479 214.7532 0002264 131.0216 229.1207 15.05671697 40639","mean_motion":15.05671697,"eccentricity":0.0002264,"inclination_deg":97.4479,"raan_deg":214.7532,"arg_perigee_deg":131.0216,"mean_anomaly_deg":229.1207,"bstar":0.00051819,"rev_number":4063,"period_min":95.638378729517,"perigee_km":547.87619696732,"apogee_km":551.01300591646,"semimajor_km":6927.5816014419,"source":"CELESTRAK","updated_at":"2026-05-25T13:38:20.848941Z"}}}